User: anonymous   Login
Location: ??
(35.5052°N, 139.7262°E)
Time: 21:47:35
(UTC+00:00)
Language:

COSMOS 1867 COOLANT - Orbit

View from above orbital plane
View from above orbital plane
View from above satellite
View from above satellite

Ground track
Ground track

The orbit data is extracted from the following two-line orbital elements,

1 39642U 87060K   22021.22813113  .00000045  00000-0  54495-4 0  9993
2 39642  65.0081 207.0450 0019917 261.3956  98.4872 14.31556189407230
Epoch (UTC): 21 January 2022 05:28:30
Eccentricity: 0.0019917
inclination: 65.0081°
perigee height: 772 km
apogee height: 801 km
right ascension of ascending node: 207.0450°
argument of perigee: 261.3956°
revolutions per day: 14.31556189
mean anomaly at epoch: 98.4872°
orbit number at epoch: 40723

The dashed part of the orbit path shows where the satellite is in the earth's shadow,  

DLR